Time,TemperatureF,DewpointF,PressureIn,WindDirection,WindDirectionDegrees,WindSpeedMPH,WindSpeedGustMPH,Humidity,HourlyPrecipIn,Conditions,Clouds,dailyrainin,SoftwareType,DateUTC
2013-07-02 00:07:00,67.7,67.0,30.08,South,190,0.0,2.0,99,0.00,,,0.00,weatherlink.com 1.10,2013-07-02 04:07:00,
2013-07-02 00:22:00,67.8,68.0,30.08,South,191,0.0,1.0,99,0.00,,,0.00,weatherlink.com 1.10,2013-07-02 04:22:00,
2013-07-02 00:37:00,67.7,67.0,30.08,South,191,1.0,1.0,99,0.00,,,0.00,weatherlink.com 1.10,2013-07-02 04:37:00,
2013-07-02 00:52:00,68.1,68.0,30.08,SW,218,1.0,2.0,99,0.00,,,0.00,weatherlink.com 1.10,2013-07-02 04:52:00,
2013-07-02 01:07:00,68.3,68.0,30.08,SSW,205,1.0,2.0,99,0.00,,,0.00,weatherlink.com 1.10,2013-07-02 05:07:00,
2013-07-02 01:22:00,67.9,68.0,30.08,SSW,198,0.0,2.0,99,0.00,,,0.00,weatherlink.com 1.10,2013-07-02 05:22:00,
2013-07-02 01:37:00,67.7,67.0,30.09,SSW,198,0.0,1.0,99,0.00,,,0.00,weatherlink.com 1.10,2013-07-02 05:37:00,
2013-07-02 01:52:00,67.8,68.0,30.09,SSW,201,2.0,3.0,99,0.00,,,0.00,weatherlink.com 1.10,2013-07-02 05:52:00,
2013-07-02 02:07:00,68.2,68.0,30.08,SW,229,2.0,3.0,99,0.00,,,0.00,weatherlink.com 1.10,2013-07-02 06:07:00,
2013-07-02 02:22:00,68.4,68.0,30.08,South,183,1.0,3.0,99,0.00,,,0.00,weatherlink.com 1.10,2013-07-02 06:22:00,
2013-07-02 02:37:00,68.1,68.0,30.08,SSE,155,1.0,3.0,99,0.00,,,0.00,weatherlink.com 1.10,2013-07-02 06:37:00,
2013-07-02 02:52:00,68.0,68.0,30.08,SSE,150,2.0,3.0,99,0.00,,,0.00,weatherlink.com 1.10,2013-07-02 06:52:00,
2013-07-02 03:08:00,68.1,68.0,30.08,SSE,160,3.0,4.0,99,0.00,,,0.00,weatherlink.com 1.10,2013-07-02 07:08:00,
2013-07-02 03:22:00,68.1,68.0,30.08,South,188,2.0,3.0,99,0.00,,,0.00,weatherlink.com 1.10,2013-07-02 07:22:00,
2013-07-02 03:37:00,68.3,68.0,30.08,SW,225,2.0,3.0,99,0.00,,,0.00,weatherlink.com 1.10,2013-07-02 07:37:00,
2013-07-02 03:52:00,68.7,68.0,30.09,SW,221,1.0,3.0,99,0.00,,,0.00,weatherlink.com 1.10,2013-07-02 07:52:00,
2013-07-02 04:08:00,68.7,68.0,30.09,SSW,194,1.0,3.0,99,0.00,,,0.00,weatherlink.com 1.10,2013-07-02 08:08:00,
2013-07-02 04:22:00,68.6,68.0,30.09,SSW,208,0.0,3.0,99,0.00,,,0.00,weatherlink.com 1.10,2013-07-02 08:22:00,
2013-07-02 04:37:00,68.6,68.0,30.09,South,183,2.0,4.0,99,0.00,,,0.00,weatherlink.com 1.10,2013-07-02 08:37:00,
2013-07-02 04:52:00,68.3,68.0,30.09,South,181,2.0,3.0,99,0.00,,,0.00,weatherlink.com 1.10,2013-07-02 08:52:00,
2013-07-02 05:09:00,68.2,68.0,30.09,SSE,158,2.0,4.0,99,0.00,,,0.00,weatherlink.com 1.10,2013-07-02 09:09:00,
2013-07-02 05:22:00,67.3,67.0,30.09,South,183,2.0,4.0,99,0.00,,,0.00,weatherlink.com 1.10,2013-07-02 09:22:00,
2013-07-02 05:37:00,-999.0,-99.9,30.10,North,-999,-999.0,-999.0,-999,0.00,,,0.00,weatherlink.com 1.10,2013-07-02 09:37:00,
2013-07-02 05:52:00,-999.0,-99.9,30.11,North,-999,-999.0,-999.0,-999,0.00,,,0.00,weatherlink.com 1.10,2013-07-02 09:52:00,
2013-07-02 06:10:00,-999.0,-99.9,30.11,North,-999,-999.0,-999.0,-999,0.00,,,0.00,weatherlink.com 1.10,2013-07-02 10:10:00,
2013-07-02 06:23:00,-999.0,-99.9,30.11,North,-999,-999.0,-999.0,-999,0.00,,,0.00,weatherlink.com 1.10,2013-07-02 10:23:00,
2013-07-02 06:38:00,-999.0,-99.9,30.12,North,-999,-999.0,-999.0,-999,0.00,,,0.00,weatherlink.com 1.10,2013-07-02 10:38:00,
2013-07-02 06:53:00,-999.0,-99.9,30.11,North,-999,-999.0,-999.0,-999,0.00,,,0.00,weatherlink.com 1.10,2013-07-02 10:53:00,
2013-07-02 07:10:00,-999.0,-99.9,30.11,North,-999,-999.0,-999.0,-999,0.00,,,0.00,weatherlink.com 1.10,2013-07-02 11:10:00,
2013-07-02 07:23:00,-999.0,-99.9,30.11,North,-999,-999.0,-999.0,-999,0.00,,,0.00,weatherlink.com 1.10,2013-07-02 11:23:00,
2013-07-02 07:38:00,-999.0,-99.9,30.11,North,-999,-999.0,-999.0,-999,0.00,,,0.00,weatherlink.com 1.10,2013-07-02 11:38:00,
2013-07-02 07:53:00,-999.0,-99.9,30.12,North,-999,-999.0,-999.0,-999,0.00,,,0.00,weatherlink.com 1.10,2013-07-02 11:53:00,
2013-07-02 08:08:00,-999.0,-99.9,30.12,North,-999,-999.0,-999.0,-999,0.00,,,0.00,weatherlink.com 1.10,2013-07-02 12:08:00,
2013-07-02 08:23:00,-999.0,-99.9,30.12,North,-999,-999.0,-999.0,-999,0.00,,,0.00,weatherlink.com 1.10,2013-07-02 12:23:00,
2013-07-02 08:38:00,-999.0,-99.9,30.13,North,-999,-999.0,-999.0,-999,0.00,,,0.00,weatherlink.com 1.10,2013-07-02 12:38:00,
2013-07-02 08:53:00,-999.0,-99.9,30.13,North,-999,-999.0,-999.0,-999,0.00,,,0.00,weatherlink.com 1.10,2013-07-02 12:53:00,
2013-07-02 09:08:00,-999.0,-99.9,30.13,North,-999,-999.0,-999.0,-999,0.00,,,0.00,weatherlink.com 1.10,2013-07-02 13:08:00,
2013-07-02 09:23:00,-999.0,-99.9,30.13,North,-999,-999.0,-999.0,-999,0.00,,,0.00,weatherlink.com 1.10,2013-07-02 13:23:00,
2013-07-02 09:38:00,-999.0,-99.9,30.13,North,-999,-999.0,-999.0,-999,0.00,,,0.00,weatherlink.com 1.10,2013-07-02 13:38:00,
2013-07-02 09:53:00,-999.0,-99.9,30.13,North,-999,-999.0,-999.0,-999,0.00,,,0.00,weatherlink.com 1.10,2013-07-02 13:53:00,
2013-07-02 10:09:00,-999.0,-99.9,30.13,North,-999,-999.0,-999.0,-999,0.00,,,0.00,weatherlink.com 1.10,2013-07-02 14:09:00,
2013-07-02 10:24:00,69.5,69.0,30.13,SSW,210,3.0,3.0,98,0.00,,,0.00,weatherlink.com 1.10,2013-07-02 14:24:00,
2013-07-02 10:39:00,69.7,69.0,30.14,SW,225,2.0,4.0,98,0.00,,,0.00,weatherlink.com 1.10,2013-07-02 14:39:00,
2013-07-02 10:54:00,70.5,70.0,30.13,West,269,1.0,5.0,98,0.00,,,0.00,weatherlink.com 1.10,2013-07-02 14:54:00,
2013-07-02 11:09:00,70.7,70.0,30.14,SW,228,1.0,4.0,97,0.00,,,0.00,weatherlink.com 1.10,2013-07-02 15:09:00,
2013-07-02 11:24:00,70.7,70.0,30.14,SSW,198,1.0,4.0,96,0.00,,,0.00,weatherlink.com 1.10,2013-07-02 15:24:00,
2013-07-02 11:39:00,70.8,70.0,30.15,SW,226,1.0,4.0,97,0.00,,,0.00,weatherlink.com 1.10,2013-07-02 15:39:00,
2013-07-02 11:54:00,70.9,70.0,30.15,SSW,193,2.0,3.0,97,0.00,,,0.00,weatherlink.com 1.10,2013-07-02 15:54:00,
2013-07-02 12:10:00,71.6,70.0,30.15,WSW,255,1.0,3.0,96,0.00,,,0.00,weatherlink.com 1.10,2013-07-02 16:10:00,
2013-07-02 12:24:00,72.5,71.0,30.15,SW,235,2.0,3.0,95,0.00,,,0.00,weatherlink.com 1.10,2013-07-02 16:24:00,
2013-07-02 12:39:00,73.0,71.0,30.15,SSW,212,2.0,3.0,94,0.00,,,0.00,weatherlink.com 1.10,2013-07-02 16:39:00,
2013-07-02 12:54:00,73.9,72.0,30.15,SW,222,1.0,3.0,94,0.00,,,0.00,weatherlink.com 1.10,2013-07-02 16:54:00,
2013-07-02 13:09:00,73.5,71.0,30.15,ESE,114,1.0,2.0,91,0.00,,,0.00,weatherlink.com 1.10,2013-07-02 17:09:00,
2013-07-02 13:24:00,73.1,71.0,30.15,East,99,1.0,3.0,92,0.00,,,0.00,weatherlink.com 1.10,2013-07-02 17:24:00,
2013-07-02 13:39:00,72.3,70.0,30.14,SE,137,0.0,1.0,92,0.00,,,0.00,weatherlink.com 1.10,2013-07-02 17:39:00,
2013-07-02 13:54:00,72.4,70.0,30.14,SE,130,0.0,1.0,93,0.00,,,0.00,weatherlink.com 1.10,2013-07-02 17:54:00,
2013-07-02 14:09:00,73.1,71.0,30.14,South,187,0.0,1.0,92,0.00,,,0.00,weatherlink.com 1.10,2013-07-02 18:09:00,
2013-07-02 14:24:00,72.7,70.0,30.14,SE,145,1.0,3.0,92,0.00,,,0.00,weatherlink.com 1.10,2013-07-02 18:24:00,
2013-07-02 14:39:00,71.3,69.0,30.14,SW,219,0.0,2.0,92,0.00,,,0.00,weatherlink.com 1.10,2013-07-02 18:39:00,
2013-07-02 14:54:00,71.1,70.0,30.13,WSW,240,2.0,3.0,95,0.00,,,0.00,weatherlink.com 1.10,2013-07-02 18:54:00,
2013-07-02 15:09:00,73.6,72.0,30.13,SW,226,0.0,3.0,94,0.00,,,0.00,weatherlink.com 1.10,2013-07-02 19:09:00,
2013-07-02 15:24:00,73.2,71.0,30.13,SW,228,1.0,3.0,91,0.00,,,0.00,weatherlink.com 1.10,2013-07-02 19:24:00,
2013-07-02 15:39:00,73.8,71.0,30.12,South,170,1.0,3.0,92,0.00,,,0.00,weatherlink.com 1.10,2013-07-02 19:39:00,
2013-07-02 15:54:00,73.1,70.0,30.13,SSE,162,2.0,3.0,90,0.00,,,0.00,weatherlink.com 1.10,2013-07-02 19:54:00,
2013-07-02 16:09:00,72.8,70.0,30.13,South,191,0.0,2.0,91,0.00,,,0.00,weatherlink.com 1.10,2013-07-02 20:09:00,
2013-07-02 16:24:00,72.4,70.0,30.13,SSE,162,2.0,2.0,91,0.00,,,0.00,weatherlink.com 1.10,2013-07-02 20:24:00,
2013-07-02 16:39:00,73.5,71.0,30.12,SSE,158,1.0,3.0,92,0.00,,,0.00,weatherlink.com 1.10,2013-07-02 20:39:00,
2013-07-02 16:54:00,73.3,70.0,30.12,SE,133,0.0,2.0,90,0.00,,,0.00,weatherlink.com 1.10,2013-07-02 20:54:00,
2013-07-02 17:09:00,72.9,70.0,30.12,SE,125,1.0,2.0,91,0.00,,,0.00,weatherlink.com 1.10,2013-07-02 21:09:00,
2013-07-02 17:24:00,72.6,70.0,30.13,South,182,1.0,2.0,91,0.00,,,0.00,weatherlink.com 1.10,2013-07-02 21:24:00,
2013-07-02 17:39:00,73.4,70.0,30.12,SSE,150,2.0,4.0,89,0.00,,,0.00,weatherlink.com 1.10,2013-07-02 21:39:00,
2013-07-02 17:54:00,73.3,70.0,30.13,South,171,2.0,4.0,90,0.00,,,0.00,weatherlink.com 1.10,2013-07-02 21:54:00,
2013-07-02 18:09:00,72.7,70.0,30.13,SSE,152,1.0,4.0,90,0.00,,,0.00,weatherlink.com 1.10,2013-07-02 22:09:00,
2013-07-02 18:24:00,72.6,70.0,30.14,SSW,198,3.0,4.0,91,0.00,,,0.00,weatherlink.com 1.10,2013-07-02 22:24:00,
2013-07-02 18:39:00,71.1,69.0,30.14,SSE,167,3.0,4.0,92,0.00,,,0.00,weatherlink.com 1.10,2013-07-02 22:39:00,
2013-07-02 18:54:00,70.4,69.0,30.15,South,177,2.0,4.0,94,0.00,,,0.00,weatherlink.com 1.10,2013-07-02 22:54:00,
2013-07-02 19:09:00,69.7,68.0,30.15,SSW,196,2.0,5.0,95,0.00,,,0.00,weatherlink.com 1.10,2013-07-02 23:09:00,
2013-07-02 19:24:00,69.3,68.0,30.15,SSW,203,1.0,4.0,96,0.00,,,0.00,weatherlink.com 1.10,2013-07-02 23:24:00,
2013-07-02 19:39:00,69.0,68.0,30.16,SSE,162,1.0,4.0,96,0.00,,,0.00,weatherlink.com 1.10,2013-07-02 23:39:00,
2013-07-02 19:54:00,68.9,68.0,30.16,South,184,2.0,4.0,97,0.00,,,0.00,weatherlink.com 1.10,2013-07-02 23:54:00,
2013-07-02 20:09:00,68.9,68.0,30.15,South,189,1.0,3.0,97,0.00,,,0.00,weatherlink.com 1.10,2013-07-03 00:09:00,
2013-07-02 20:24:00,68.9,68.0,30.15,SSW,203,0.0,3.0,97,0.00,,,0.00,weatherlink.com 1.10,2013-07-03 00:24:00,
2013-07-02 20:39:00,68.6,68.0,30.15,SW,222,1.0,3.0,97,0.00,,,0.00,weatherlink.com 1.10,2013-07-03 00:39:00,
2013-07-02 20:54:00,68.5,68.0,30.16,SSW,210,1.0,2.0,97,0.00,,,0.00,weatherlink.com 1.10,2013-07-03 00:54:00,
2013-07-02 21:09:00,68.8,68.0,30.16,SW,228,0.0,2.0,98,0.00,,,0.00,weatherlink.com 1.10,2013-07-03 01:09:00,
2013-07-02 21:24:00,68.7,68.0,30.17,SW,214,0.0,1.0,98,0.00,,,0.00,weatherlink.com 1.10,2013-07-03 01:24:00,
2013-07-02 21:39:00,69.0,69.0,30.18,SSW,195,0.0,1.0,98,0.00,,,0.00,weatherlink.com 1.10,2013-07-03 01:39:00,
2013-07-02 21:54:00,69.4,69.0,30.18,SSW,210,0.0,1.0,98,0.00,,,0.00,weatherlink.com 1.10,2013-07-03 01:54:00,
2013-07-02 22:09:00,69.9,69.0,30.18,SSW,212,0.0,7.0,98,0.00,,,0.00,weatherlink.com 1.10,2013-07-03 02:09:00,
2013-07-02 22:24:00,69.8,69.0,30.18,SSW,212,0.0,0.0,98,0.00,,,0.00,weatherlink.com 1.10,2013-07-03 02:24:00,
2013-07-02 22:39:00,69.0,69.0,30.18,SSE,152,0.0,1.0,98,0.00,,,0.00,weatherlink.com 1.10,2013-07-03 02:39:00,
2013-07-02 22:54:00,68.9,68.0,30.17,SSE,152,0.0,0.0,98,0.00,,,0.00,weatherlink.com 1.10,2013-07-03 02:54:00,
2013-07-02 23:24:00,67.7,67.0,30.18,SE,134,0.0,0.0,98,0.00,,,0.00,weatherlink.com 1.10,2013-07-03 03:24:00,
2013-07-02 23:39:00,68.5,68.0,30.18,SSW,194,0.0,1.0,99,0.00,,,0.00,weatherlink.com 1.10,2013-07-03 03:39:00,
2013-07-02 23:54:00,69.2,69.0,30.17,SSW,203,1.0,2.0,99,0.00,,,0.00,weatherlink.com 1.10,2013-07-03 03:54:00,